Regional Weather Roundup
Issued by NWS

Home | Current Version | Previous Version | Graphics & Text | Print | Product List | Glossary On
Versions: 1 2 3 4 5 6 7 8 9 10 11 12 13 14 15 16 17 18 19 20 21 22 23 24 25 26 27 28 29 30 31 32 33 34 35 36 37 38 39 40 41 42 43 44 45 46 47 48 49 50
000
ASUS43 KMPX 270710
RWRMN
WEATHER ROUNDUP FOR MINNESOTA
NATIONAL WEATHER SERVICE TWIN CITIES/CHANHASSEN MN
200 AM CDT WED JUL 27 2016


NOTE: "FAIR" INDICATES FEW OR NO CLOUDS BELOW 12,000 FEET WITH NO
SIGNIFICANT WEATHER AND/OR OBSTRUCTIONS TO VISIBILITY. N/A MEANS
CURRENT SKY AND/OR WEATHER CONDITIONS ARE NOT AVAILABLE.

MNZ060>063-068>070-270800-
   Twin Cities Metro

CITY           SKY/WX    TMP DP  RH WIND       PRES   REMARKS
TWIN CITIES    CLOUDY    79  68  69 SW5       29.97F
ST PAUL        CLOUDY    76  69  79 CALM      29.96F
CRYSTAL        CLOUDY    78  67  68 SW6       29.95F
BLAINE         CLOUDY    75  64  69 CALM      29.97S
LAKEVILLE      CLOUDY    72  68  88 CALM      29.98S
EDEN PRAIRIE   CLOUDY    77  69  76 SW6       29.96F
LAKEVILLE      CLOUDY    72  68  88 CALM      29.98S
SOUTH ST PAUL  PTCLDY    77  67  72 CALM      29.96F
LAKE ELMO      FAIR      72  68  88 CALM      29.98F
$$
MNZ001>005-007-008-013>017-022>024-027-028-270800-
   Northwest Minnesota

CITY           SKY/WX    TMP DP  RH WIND       PRES   REMARKS
BEMIDJI        MOCLDY    68  61  77 NE3       29.98F
HALLOCK        CLOUDY    63  59  88 NE3       30.03S
ROSEAU         MOCLDY    63  57  82 N6        30.02F
WARROAD        CLOUDY    64  55  72 NW6       30.03F
CROOKSTON      LGT RAIN  63  61  94 NE6       30.03R
FOSSTON        CLOUDY    64  63  94 N8        30.00F
DETROIT LAKES  CLOUDY    66  63  88 NW5       29.97S
MOORHEAD       MOCLDY    66  64  94 W3        29.97R
PARK RAPIDS    MOCLDY    69  66  90 NW3       29.96F
MAHNOMEN       DRIZZLE   66  65  94 N6        29.98S
$$
MNZ006-009>011-018-025>026-270800-
   North Central Minnesota

CITY           SKY/WX    TMP DP  RH WIND       PRES   REMARKS
BAUDETTE       CLOUDY    66  56  70 N7        30.00F
FLAG ISLAND    MOCLDY    68  55  64 N12       30.02F
INTL FALLS     CLOUDY    68  58  70 N3        29.99F
WASKISH        CLOUDY    66  57  72 N9        29.98F
BIG FORK       CLOUDY    64  63  94 CALM      29.98F
LONGVILLE      CLOUDY    64  64 100 CALM      29.96F
GRAND RAPIDS   CLOUDY    66  64  93 CALM      29.98F
CRANE LAKE     CLOUDY    57  55  94 S1        30.00F
ORR            CLOUDY    63  57  82 CALM      29.97F
COOK           CLOUDY    64  63  94 CALM      29.99F
WALKER         FAIR      69  67  95 NE5       29.96S
$$
MNZ012-019>021-037-270800-
   Northeast Minnesota

CITY           SKY/WX    TMP DP  RH WIND       PRES   REMARKS
DULUTH         TSTM      69  68  96 CALM      29.97S
ELY            CLOUDY    63  61  94 CALM      30.00F
HIBBING        CLOUDY    63  60  90 N5        29.97F
EVELETH        MOCLDY    67  58  74 NE5       29.99F
DULUTH HARBOR  LGT RAIN  70  66  88 NW5       29.95F
TWO HARBORS    PTCLDY    72  66  83 CALM      29.95R
SILVER BAY     CLOUDY    66  63  88 CALM      29.94F
GRAND MARAIS     N/A     65  53  65 CALM      29.95S
G MARAIS ARPRT CLOUDY    59  52  77 N7        30.02S
$$
MNZ029>031-032-039>041-046>048-054>057-064-270800-
   West Central Minnesota

CITY           SKY/WX    TMP DP  RH WIND       PRES   REMARKS
FERGUS FALLS   CLOUDY    70  63  78 CALM      29.97S
WHEATON        CLOUDY    70  68  94 S5        29.98F
MORRIS         CLOUDY    72  66  83 CALM      29.96S
ALEXANDRIA     CLOUDY    70  66  87 CALM      29.99S
ELBOW LAKE     LGT RAIN  68  67  95 W3        29.98R
WADENA         CLOUDY    64  64 100 W5        29.96F
GLENWOOD       CLOUDY    70  66  88 S6        29.99S
APPLETON       LGT RAIN  72  66  83 E7        29.95F
BENSON         CLOUDY    70  61  73 SE3       29.97F
ORTONVILLE     LGT RAIN  70  66  88 CALM      29.96S
MADISON        CLOUDY    70  66  88 E6        29.96S
WILLMAR        MOCLDY    72  70  94 N7        30.00R
$$
MNZ033>034-036-042>043-049>051-058-059-270800-
   Central Minnesota

CITY           SKY/WX    TMP DP  RH WIND       PRES   REMARKS
ST CLOUD       CLOUDY    68  66  93 CALM      29.96S
SAUK CENTRE    CLOUDY    68  67  95 S3        29.98S
PAYNESVILLE    MOCLDY    70  70 100 CALM      29.98F
AITKIN         CLOUDY    63  57  82 CALM      29.95F HAZE
PINE RIVER     CLOUDY    64  64 100 CALM      29.99S
BRAINERD       CLOUDY    63  62  97 CALM      29.96F
STAPLES        CLOUDY    64  63  94 S3        29.96F
LONG PRAIRIE   FAIR      66  64  94 SE3       29.98S
LITTLE FALLS   MOCLDY    63  61  94 CALM      29.97S
LITCHFIELD     CLOUDY    73  73 100 CALM      29.99S
BUFFALO        CLOUDY    75  69  80 S5        29.97F
MAPLE LAKE     CLOUDY    75  71  87 S3        29.97F
HUTCHINSON     CLOUDY    74  71  89 SW3       29.99S
$$
MNZ037-044-045-052-053-270800-
   East Central Minnesota

CITY           SKY/WX    TMP DP  RH WIND       PRES   REMARKS
PRINCETON      MOCLDY    70  63  78 CALM      29.96F
MORA           CLOUDY    64  64 100 CALM      29.99S
CAMBRIDGE      MOCLDY    73  61  64 SE3       29.95S
RUSH CITY      MOCLDY    69  63  82 CALM      29.98S
MOOSE LAKE     CLOUDY    64  63  94 CALM      29.95F
HINCKLEY       FAIR      66  66 100 CALM      29.98S
CLOQUET        CLOUDY    66  61  82 CALM      29.97F
MCGREGOR       CLOUDY    63  61  94 CALM      29.97F
$$
MNZ071>073-080-081-089-090-097-098-270800-
   Southwest Minnesota

CITY           SKY/WX    TMP DP  RH WIND       PRES   REMARKS
MONTEVIDEO     RAIN      72  66  83 SE3       29.98F
GRANITE FALLS  CLOUDY    73  67  80 E3        29.98F
CANBY          CLOUDY    70  66  85 E5        29.97F
MARSHALL       CLOUDY    73  68  84 SE6       29.97F
REDWOOD FALLS  CLOUDY    73  68  84 S5        29.97F
OLIVIA         CLOUDY    73  70  88 S3        29.97F
PIPESTONE      MOCLDY    70  64  83 S3        29.99F
WINDOM         CLOUDY    70  64  83 S5        30.00S
WORTHINGTON    MOCLDY    70  66  87 S9        30.01F
JACKSON        CLOUDY    70  64  83 S7        30.00F
TRACY          CLOUDY    71  69  93 S3        29.99F
SLAYTON        CLOUDY    68  65  91 S6        30.01F
$$
MNZ065>067-074>077-082>085-091>093-270800-
   South Central Minnesota

CITY           SKY/WX    TMP DP  RH WIND       PRES   REMARKS
MANKATO        CLOUDY    73  66  78 S3        29.99S
NEW ULM        PTCLDY    70  70 100 S3        29.98F
ST JAMES       CLEAR     64  63  94 CALM      30.00S
FAIRMONT       CLOUDY    68  64  88 S6        29.98F
GLENCOE        CLOUDY    75  72  89 S5        29.97F
FARIBAULT      CLOUDY    70  68  94 CALM      30.00F
OWATONNA       CLOUDY    70  66  88 CALM      30.00F
WASECA         CLOUDY    70  68  94 CALM      30.02S
ALBERT LEA     PTCLDY    73  66  78 CALM      30.01S
$$
MNZ078>079-086>088-094>096-270800-
   Southeast Minnesota

CITY           SKY/WX    TMP DP  RH WIND       PRES   REMARKS
ROCHESTER      CLEAR     68  66  93 W5        30.02S
RED WING       CLOUDY    70  66  88 CALM      29.97F
STANTON        CLOUDY    72  68  88 CALM      29.98S
DODGE CENTER   PTCLDY    68  64  88 CALM      30.01F
WINONA         CLEAR     72  68  88 CALM      29.99F
AUSTIN         PTCLDY    70  64  83 CALM      30.01S
PRESTON        CLEAR     68  65  89 SW6       30.02F
$$
ABBREVIATIONS USED IN REMARKS
   TC - TEMPERATURES IN CELSIUS
  WCI - WIND CHILL INDEX
   HX - HEAT INDEX
  VSB - VISIBILITY
$$




USA.gov is the U.S. government's official web portal to all federal, state and local government web resources and services.